Temp
13 13 13 12 12 12 11 11 10 10 11 10 10 9 9 9 9 9 8 9 9 9 9 9 9 9 9 9 9 8 8 9 9 9 8 9 9 10 11 11 10 10 10
14 13 13 13 12 12 12 12 11 11 11 11 10 10 9 9 9 8 9 9 9 9 9 9 9 9 9 9 9 9 9 9 9 9 8 9 9 10 10 10 10 11 10
14 14 13 13 12 12 12 12 11 11 11 11 10 10 9 9 9 9 9 9 9 9 9 9 9 9 9 9 8 9 9 9 9 9 9 10 10 10 10 10 10 10 10
14 14 13 13 13 12 12 11 11 11 11 11 10 10 10 10 10 10 9 9 8 8 9 9 9 9 8 9 9 8 10 8 9 9 9 9 9 9 9 9 9 9 9
15 14 13 13 12 12 11 11 11 11 11 11 10 10 10 11 11 10 9 9 9 8 9 8 8 8 8 8 8 8 8 9 9 9 9 9 9 10 10 9 10 9 9
15 15 14 13 12 12 12 11 11 11 11 11 11 11 11 11 11 10 10 9 10 10 9 7 7 8 8 8 8 8 8 8 9 9 9 9 9 10 9 9 10 10 9
15 15 14 14 13 12 12 12 12 11 11 11 11 10 10 10 10 10 10 10 9 10 10 8 8 8 7 8 8 8 7 8 8 8 8 9 9 9 9 9 9 9 9
15 15 15 14 14 13 12 12 11 11 11 10 11 11 11 10 10 10 10 9 9 9 10 10 9 8 8 8 8 8 8 8 8 8 9 9 9 9 9 9 9 9 9
15 15 15 14 14 14 14 13 12 11 11 11 11 11 11 10 10 10 10 10 9 9 9 9 9 10 9 8 8 8 8 8 9 10 10 9 9 9 9 9 9 9 9
14 14 14 14 14 13 13 13 12 12 11 11 11 11 10 10 10 10 9 9 9 9 8 8 8 9 9 10 9 9 9 9 9 10 10 10 10 10 9 9 9 9 8
13 13 13 13 13 13 12 12 11 11 11 11 11 11 10 10 10 9 9 9 9 8 8 9 9 9 8 8 9 9 9 9 10 10 10 10 10 10 10 10 9 9 9
13 12 12 12 12 12 12 11 11 10 10 10 11 11 10 10 9 9 9 8 8 8 8 8 9 9 8 8 8 9 9 9 9 9 10 10 10 10 10 10 10 9 10
13 12 11 11 11 11 10 11 11 11 10 9 9 10 10 9 8 8 7 7 8 7 8 8 9 9 8 8 9 8 8 8 8 9 9 9 9 9 9 10 10 9 9
12 11 11 10 10 10 10 9 9 9 10 8 8 9 10 9 8 9 7 6 6 7 7 7 7 8 8 9 8 8 8 8 8 8 8 8 8 8 9 9 9 8 8
11 11 11 10 10 9 9 9 8 8 8 9 8 9 9 10 10 7 7 7 5 6 6 6 7 7 8 8 8 8 7 7 6 6 7 7 7 7 8 8 8 8 8
9 9 10 9 9 9 9 9 9 9 8 8 7 7 7 9 9 7 7 7 6 6 5 5 6 7 7 8 8 7 7 6 6 7 7 7 7 7 6 6 6 6 7
8 8 8 9 9 9 9 9 9 9 9 9 9 8 9 8 8 8 8 6 5 6 6 5 5 6 6 7 7 7 6 6 6 6 6 6 6 6 6 5 4 5 5
7 7 7 8 8 8 8 8 9 8 8 9 9 9 9 8 8 7 7 6 6 6 6 5 5 5 5 6 7 6 5 5 5 5 5 5 5 4 4 4 4 5 5
7 7 8 8 8 8 8 8 8 8 9 9 9 9 9 9 8 7 6 6 7 6 6 5 5 5 5 5 6 5 5 4 3 3 3 4 4 4 4 4 4 4 4
8 7 8 8 8 7 7 7 8 8 8 8 8 8 8 8 8 7 6 6 5 5 6 6 5 5 4 4 4 4 4 3 3 3 3 3 4 4 4 4 4 4 5
8 8 8 7 7 6 6 6 7 7 7 7 7 8 8 8 6 7 6 6 5 6 6 5 5 5 4 2 4 3 3 3 3 3 4 4 3 3 3 4 4 4 4
7 7 7 7 6 6 5 6 6 6 6 6 7 7 7 7 7 6 6 6 5 5 4 4 3 3 3 3 3 2 1 2 3 2 2 1 0 2 2 2 2 2 2
7 6 5 6 6 5 6 6 7 6 6 6 6 6 6 6 6 6 6 5 5 4 4 4 3 3 3 2 2 2 2 1 0 -0 -0 0 -0 0 0 1 -0 0 0
5 4 6 6 6 5 6 6 6 5 5 5 5 6 5 5 5 5 5 5 4 4 4 3 3 3 3 2 2 2 1 1 1 1 1 0 1 1 0 0 1 0 -1
2 3 3 5 5 4 5 4 4 5 5 5 5 5 5 5 5 4 4 5 4 4 3 3 3 2 2 3 2 2 2 2 1 1 0 -0 -0 -0 -0 -0 0 0 0
4 5 5 4 4 4 4 3 5 5 5 4 4 4 4 4 4 4 3 3 3 3 3 3 2 2 2 2 2 2 1 1 1 -0 -0 -0 0 -0 -0 0 -0 -0 -0
Height
3144 3143 3143 3143 3143 3143 3144 3145 3146 3147 3148 3150 3150 3151 3154 3155 3156 3158 3159 3159 3159 3159 3159 3159 3162 3164 3168 3171 3174 3175 3179 3180 3178 3181 3180 3183 3192 3190 3193 3197 3200 3202 3205
3142 3141 3141 3141 3141 3141 3142 3143 3144 3145 3147 3148 3148 3149 3151 3153 3154 3155 3155 3155 3155 3153 3153 3155 3158 3161 3164 3168 3170 3173 3173 3176 3174 3177 3180 3183 3186 3187 3191 3194 3196 3198 3200
3140 3139 3140 3140 3140 3140 3141 3142 3143 3145 3145 3145 3146 3147 3149 3151 3152 3153 3153 3151 3148 3147 3148 3150 3153 3156 3160 3164 3166 3167 3166 3170 3173 3175 3176 3179 3183 3187 3190 3192 3194 3195 3197
3139 3138 3138 3139 3140 3139 3140 3141 3142 3144 3144 3144 3145 3147 3148 3149 3149 3150 3150 3147 3145 3144 3144 3145 3145 3150 3155 3156 3158 3154 3128 3163 3169 3174 3177 3180 3183 3186 3188 3190 3192 3194 3195
3138 3137 3136 3137 3138 3138 3139 3140 3141 3142 3143 3144 3145 3146 3147 3147 3147 3147 3147 3146 3143 3141 3139 3140 3142 3145 3148 3151 3155 3155 3157 3161 3167 3172 3175 3178 3180 3182 3185 3187 3189 3190 3191
3137 3136 3135 3134 3136 3137 3137 3139 3139 3140 3141 3143 3144 3144 3145 3145 3145 3145 3145 3145 3143 3141 3139 3139 3139 3138 3140 3145 3151 3151 3156 3161 3164 3168 3172 3175 3177 3178 3181 3182 3184 3186 3188
3135 3134 3134 3133 3134 3134 3136 3137 3139 3139 3140 3141 3142 3143 3144 3144 3144 3144 3144 3144 3143 3142 3140 3139 3139 3141 3143 3145 3149 3153 3156 3157 3160 3164 3167 3170 3172 3174 3176 3177 3179 3181 3183
3132 3132 3132 3132 3131 3131 3131 3133 3135 3137 3138 3138 3139 3141 3143 3143 3143 3143 3143 3143 3143 3143 3142 3141 3141 3142 3142 3144 3148 3151 3153 3154 3157 3159 3162 3165 3167 3169 3170 3171 3173 3175 3177
3128 3129 3129 3129 3129 3129 3128 3129 3129 3131 3132 3135 3136 3138 3139 3141 3142 3142 3142 3142 3142 3143 3143 3143 3143 3143 3145 3146 3147 3149 3151 3153 3155 3156 3157 3159 3161 3163 3164 3166 3167 3170 3171
3124 3124 3125 3125 3126 3127 3127 3127 3127 3126 3127 3128 3131 3133 3134 3135 3137 3138 3139 3140 3140 3140 3140 3140 3142 3143 3144 3145 3146 3147 3148 3150 3150 3150 3151 3152 3153 3155 3158 3160 3161 3163 3165
3118 3118 3119 3119 3120 3121 3123 3124 3125 3124 3124 3122 3123 3126 3130 3132 3134 3134 3135 3135 3135 3136 3135 3136 3138 3140 3140 3140 3140 3141 3142 3143 3144 3145 3146 3146 3147 3148 3150 3153 3154 3155 3158
3111 3111 3112 3113 3115 3116 3117 3118 3118 3120 3121 3119 3118 3118 3121 3126 3128 3130 3130 3131 3131 3132 3132 3131 3130 3133 3133 3134 3134 3135 3136 3137 3137 3138 3139 3140 3141 3142 3143 3145 3146 3148 3148
3106 3106 3107 3109 3110 3109 3110 3109 3111 3111 3115 3116 3115 3115 3114 3116 3120 3121 3123 3124 3125 3126 3125 3125 3127 3127 3127 3126 3127 3128 3128 3129 3130 3131 3133 3133 3134 3135 3136 3137 3141 3142 3143
3099 3098 3100 3101 3100 3094 3094 3073 3102 3106 3106 3105 3108 3109 3110 3110 3109 3111 3113 3113 3116 3117 3118 3118 3118 3119 3119 3119 3119 3119 3119 3119 3120 3122 3124 3126 3127 3127 3129 3132 3133 3135 3136
3088 3089 3089 3090 3089 3089 3083 3079 3098 3099 3098 3094 3093 3096 3097 3099 3101 3100 3103 3103 3105 3107 3108 3108 3111 3111 3111 3111 3111 3111 3110 3109 3111 3113 3115 3118 3120 3122 3123 3124 3126 3127 3129
3080 3081 3081 3082 3083 3083 3083 3086 3089 3091 3088 3084 3077 3078 3085 3091 3091 3092 3093 3093 3095 3097 3096 3099 3100 3103 3102 3102 3102 3103 3103 3103 3104 3106 3108 3110 3113 3115 3117 3119 3120 3122 3124
3075 3074 3074 3076 3075 3075 3075 3076 3078 3079 3075 3079 3078 3078 3079 3079 3081 3081 3083 3085 3086 3087 3086 3088 3090 3091 3091 3094 3094 3094 3095 3096 3098 3100 3101 3104 3106 3109 3110 3112 3115 3117 3118
3070 3070 3069 3071 3070 3071 3071 3071 3071 3070 3071 3072 3071 3073 3073 3072 3072 3072 3073 3075 3076 3078 3079 3081 3080 3081 3083 3084 3085 3085 3086 3088 3090 3092 3094 3096 3100 3102 3105 3107 3109 3110 3110
3069 3068 3068 3069 3068 3067 3066 3066 3067 3069 3068 3066 3065 3066 3065 3064 3063 3063 3064 3065 3069 3072 3073 3074 3074 3074 3077 3077 3077 3077 3078 3080 3083 3086 3089 3090 3092 3094 3096 3099 3100 3100 3101
3065 3065 3064 3064 3063 3063 3065 3065 3065 3064 3062 3061 3060 3059 3059 3057 3057 3057 3058 3058 3057 3059 3061 3063 3063 3064 3067 3066 3068 3070 3072 3075 3077 3078 3080 3082 3084 3086 3088 3090 3092 3093 3092
3061 3062 3062 3061 3060 3059 3060 3060 3061 3060 3058 3057 3056 3053 3053 3052 3051 3050 3048 3048 3048 3049 3049 3051 3044 3048 3051 3055 3057 3060 3065 3067 3069 3072 3074 3075 3076 3078 3079 3081 3083 3084 3085
3056 3057 3057 3056 3056 3055 3055 3055 3057 3054 3055 3053 3051 3049 3048 3048 3046 3045 3043 3040 3042 3042 3041 3045 3047 3047 3048 3045 3047 3050 3057 3059 3060 3063 3065 3066 3068 3069 3071 3072 3074 3076 3077
3053 3052 3052 3051 3052 3052 3051 3051 3052 3051 3051 3049 3048 3047 3046 3045 3043 3041 3041 3038 3038 3038 3039 3039 3040 3041 3041 3044 3044 3045 3046 3046 3050 3054 3058 3057 3056 3060 3062 3063 3066 3068 3068
3050 3049 3048 3048 3048 3048 3047 3048 3048 3048 3047 3046 3044 3043 3042 3041 3041 3041 3039 3038 3038 3037 3036 3036 3037 3038 3036 3037 3040 3040 3041 3044 3043 3045 3046 3046 3048 3051 3054 3055 3058 3059 3060
3052 3048 3047 3045 3046 3045 3045 3045 3044 3044 3043 3042 3041 3041 3039 3038 3038 3038 3036 3036 3036 3036 3034 3034 3034 3034 3034 3033 3036 3035 3037 3037 3037 3039 3040 3041 3042 3044 3045 3047 3049 3051 3051
3047 3046 3045 3044 3044 3043 3042 3041 3040 3039 3038 3038 3037 3036 3036 3035 3036 3035 3033 3032 3032 3032 3032 3032 3031 3031 3030 3030 3030 3029 3030 3030 3031 3033 3035 3036 3036 3037 3038 3038 3041 3042 3044
Wind_Speed
12 10 10 10 10 11 10 13 14 12 11 10 10 11 11 11 13 14 16 18 19 19 19 18 17 20 24 23 21 16 19 16 19 19 22 21 17 14 16 15 17 20 23
9 9 9 8 7 9 9 9 10 8 9 10 10 9 9 9 9 12 11 13 15 16 17 20 20 22 24 23 22 21 18 16 18 15 11 11 11 12 13 12 14 17 18
8 7 7 8 10 10 10 9 10 8 8 9 9 7 7 7 9 9 11 16 17 18 18 22 22 27 27 27 23 22 22 20 16 15 13 11 12 12 11 12 13 13 14
8 7 7 8 9 9 12 10 10 7 6 8 7 6 6 8 9 9 6 10 10 10 17 22 25 28 31 31 29 32 14 18 19 16 14 14 16 14 10 10 12 11 14
8 9 7 7 9 9 11 12 12 7 7 8 9 7 6 6 5 5 5 7 10 7 7 18 26 29 34 35 32 26 17 17 17 17 17 17 17 17 13 14 16 16 16
8 9 9 8 9 9 11 13 13 11 9 10 10 8 8 7 3 3 5 5 7 9 11 3 17 17 33 35 32 27 23 18 17 17 18 19 19 18 20 21 19 20 19
10 9 9 9 9 9 11 12 13 12 12 11 13 12 12 10 7 6 6 5 4 6 9 5 5 14 16 25 27 26 24 22 19 17 17 18 21 21 22 23 23 22 21
10 11 11 12 12 12 12 13 13 14 13 13 14 14 15 13 11 9 8 8 6 3 2 3 3 1 11 17 19 19 21 20 19 16 23 25 25 24 24 23 24 23 24
15 14 14 16 15 14 13 13 14 15 15 14 15 15 15 16 15 14 13 11 9 8 7 4 6 7 9 13 17 22 23 21 20 18 23 23 25 25 24 24 23 24 24
21 18 18 18 19 19 17 16 15 15 15 14 15 18 19 18 18 18 17 17 16 14 11 9 10 11 12 14 19 19 20 24 23 25 26 26 26 28 30 31 30 27 25
26 25 23 22 21 21 20 19 18 16 14 12 12 14 18 21 20 22 23 22 22 21 20 22 19 17 17 21 22 22 22 24 25 27 26 27 26 26 27 27 29 30 29
33 31 29 26 25 25 24 22 21 19 18 15 15 15 12 17 20 22 28 29 28 27 26 26 30 26 23 22 23 26 27 26 25 25 25 25 25 24 25 26 27 26 29
34 37 35 31 29 28 28 29 27 26 21 14 17 20 24 25 25 26 27 33 33 31 31 29 28 25 23 24 25 27 28 30 32 30 27 26 26 25 27 27 22 25 24
25 30 33 34 35 33 37 25 25 29 29 25 29 32 37 38 35 32 32 34 35 34 33 33 31 28 26 26 25 27 30 32 35 35 31 29 29 30 29 26 24 23 23
28 26 29 37 43 40 46 30 33 30 35 46 51 53 50 49 36 39 39 31 33 35 33 36 33 31 28 28 28 27 27 28 29 31 30 30 29 29 28 26 25 25 23
27 28 32 32 31 32 29 30 34 29 24 29 27 29 32 38 33 39 36 33 36 45 44 39 40 38 31 30 29 27 26 23 25 26 27 28 29 26 24 23 19 18 16
24 26 25 24 22 23 23 23 21 23 15 21 19 21 26 30 31 33 33 32 33 37 33 41 38 38 29 29 30 27 26 27 25 24 25 26 27 26 26 26 23 21 24
15 17 14 13 17 18 17 16 19 17 20 23 24 26 29 33 33 33 32 31 32 33 27 32 36 31 28 31 30 27 25 27 25 23 23 24 25 23 24 27 30 31 29
13 13 17 19 17 16 16 17 17 21 23 24 24 24 26 27 30 32 36 36 34 33 33 30 35 39 39 36 33 27 25 25 25 26 27 29 29 30 28 29 28 29 31
18 20 19 17 15 13 13 13 14 15 14 13 14 16 16 18 22 25 31 40 45 45 44 46 43 42 44 37 33 27 25 24 23 23 26 28 28 29 28 27 28 27 27
18 17 16 14 13 12 12 12 13 13 13 13 13 13 15 17 18 20 20 28 31 37 40 36 46 51 39 32 38 32 27 27 26 26 26 26 28 29 30 27 25 25 24
13 12 12 11 12 13 14 14 13 12 13 12 13 15 16 18 18 15 14 15 14 16 14 19 20 26 33 34 38 31 28 30 30 29 29 26 24 24 24 23 23 23 24
10 11 9 10 13 11 12 13 14 12 13 13 13 14 13 12 12 10 8 10 12 11 14 17 23 26 26 31 30 38 43 30 27 30 34 31 26 20 22 25 22 24 23
8 9 10 11 13 14 17 15 14 13 13 13 13 13 14 13 12 9 10 12 9 8 10 10 11 11 12 17 25 28 28 23 19 20 22 28 32 32 29 25 25 23 20
2 4 6 5 4 8 7 8 9 12 13 14 14 13 14 12 11 13 13 14 12 12 11 9 9 10 11 12 14 15 18 22 23 24 26 25 23 26 24 20 23 25 26
3 3 4 5 5 6 6 7 11 12 12 12 12 12 11 13 13 16 19 22 14 14 14 15 18 17 15 21 22 25 22 25 28 25 26 27 26 25 21 20 24 25 23
Wind_Direction
298 285 272 270 266 259 245 244 253 252 245 234 234 229 227 231 237 248 257 263 274 269 260 245 227 214 210 211 214 212 227 215 241 238 218 219 224 226 240 234 237 239 236
303 288 280 271 263 249 231 223 221 214 227 236 233 236 240 246 249 261 260 270 275 268 248 228 218 214 214 213 212 210 216 210 237 236 231 207 207 218 231 228 233 237 235
306 285 272 264 251 240 223 212 208 224 242 230 224 209 215 239 259 268 274 292 281 260 244 230 223 220 217 213 213 212 215 220 219 220 221 220 217 217 220 220 232 235 238
299 284 269 265 252 240 221 225 220 246 213 189 180 188 234 259 260 259 277 331 287 288 247 236 227 224 220 215 212 223 200 203 205 209 220 217 214 207 211 231 232 223 234
297 284 266 259 256 243 231 229 222 231 209 203 205 230 255 264 263 248 258 343 11 294 332 235 231 233 223 212 217 215 218 212 207 217 221 224 218 224 219 228 225 228 225
298 295 278 254 249 248 238 238 237 233 226 220 230 245 254 257 265 272 273 302 339 355 10 311 232 248 230 213 217 212 207 213 217 221 228 232 232 230 230 235 231 233 231
295 290 278 267 255 249 247 246 248 248 244 245 245 244 245 245 240 240 252 267 298 3 20 18 237 244 242 233 221 226 214 207 210 217 227 239 239 240 242 243 239 237 239
271 277 272 264 253 244 240 238 239 244 251 253 256 257 255 253 246 243 243 246 277 297 12 19 75 305 226 237 231 236 219 206 217 222 231 232 244 242 245 244 244 244 246
264 261 268 269 258 258 250 244 239 236 242 260 269 262 261 264 264 259 252 253 253 267 274 236 246 249 236 226 227 225 217 212 235 247 245 240 243 243 245 243 244 247 246
260 255 253 252 260 259 251 248 245 243 245 254 270 263 259 259 261 264 264 259 263 265 265 277 278 265 255 244 238 239 227 232 233 248 261 253 246 244 243 245 242 240 241
253 252 250 248 245 247 248 245 245 241 241 245 260 270 268 269 270 270 264 261 261 264 273 278 278 287 280 261 254 250 249 251 252 255 252 251 249 248 247 244 243 243 244
250 248 247 245 243 241 239 237 237 238 237 240 245 250 257 271 280 286 276 264 260 263 268 274 283 290 284 274 263 257 255 257 259 257 256 252 250 247 247 244 242 243 244
258 254 251 248 243 245 242 235 233 231 227 238 272 276 270 271 276 277 282 273 260 258 259 262 277 285 278 274 273 264 258 254 252 254 251 250 249 249 246 248 244 240 244
266 256 253 253 254 241 238 242 229 231 224 281 284 290 282 269 271 281 289 275 256 257 261 263 269 273 272 272 268 263 260 253 248 248 249 249 247 245 248 249 246 243 244
262 258 254 252 252 257 268 284 248 237 255 279 285 279 277 270 268 277 285 266 255 251 251 263 270 274 271 271 272 269 262 256 250 244 244 248 251 254 255 247 247 247 245
262 262 265 267 266 268 267 253 250 258 280 295 278 259 247 256 270 275 273 268 259 257 255 258 268 265 262 268 270 270 258 251 246 244 243 245 245 243 245 253 249 250 248
265 265 266 267 269 267 263 252 239 249 239 261 265 258 260 271 274 266 271 263 261 265 267 257 259 255 257 267 270 269 258 248 247 248 245 242 243 246 236 237 241 261 267
275 264 263 265 266 263 270 261 254 266 266 261 264 268 269 270 270 265 261 256 258 260 262 267 250 256 264 269 268 260 251 247 240 239 241 232 225 223 243 251 258 268 259
274 256 276 275 272 273 274 274 269 266 265 267 270 268 269 272 269 267 262 261 260 258 260 260 268 256 252 264 264 254 243 234 235 239 236 228 233 247 251 255 258 257 259
262 271 272 277 279 278 273 272 273 274 277 284 280 285 293 298 286 276 265 262 261 261 259 256 256 252 258 256 255 236 227 228 237 239 241 242 243 245 252 258 260 260 264
263 265 268 270 272 271 270 269 275 279 282 280 281 292 300 302 292 283 274 268 262 256 261 268 236 242 229 232 239 227 225 231 237 242 244 248 248 249 253 256 255 261 263
271 270 265 268 275 273 274 275 280 284 283 285 291 301 307 306 313 298 295 292 285 270 266 267 269 272 261 252 250 233 237 237 236 241 237 237 245 247 248 253 255 258 262
276 278 272 262 260 269 274 271 276 281 284 281 286 293 297 299 313 310 315 336 328 304 280 270 278 281 273 258 261 251 241 235 258 257 259 240 223 236 250 256 257 259 258
266 248 263 264 269 270 275 280 277 280 279 288 301 303 305 301 293 284 312 319 298 305 325 295 279 275 272 272 271 273 263 250 249 250 254 249 243 240 246 249 259 263 262
317 314 335 294 279 286 289 290 286 281 284 289 292 293 290 285 284 272 291 294 290 280 292 299 291 282 283 272 263 255 247 244 241 235 235 237 239 246 244 255 261 259 258
286 297 308 314 316 318 312 304 286 279 279 285 289 289 286 286 277 282 292 281 276 281 276 279 275 282 286 276 268 267 267 262 249 236 244 245 250 255 260 250 255 260 256